Regional Weather Roundup
Issued by NWS

Home | Current Version | Previous Version | Text Only | Print | Product List | Glossary Off
Versions: 1 2 3 4 5 6 7 8 9 10 11 12 13 14 15 16 17 18 19 20 21 22 23 24 25 26 27 28 29 30 31 32 33 34 35 36 37 38 39 40 41 42 43 44 45 46 47 48 49 50

000
ASUS45 KTFX 271210
RWRMT
MONTANA REGIONAL WEATHER ROUNDUP
NATIONAL WEATHER SERVICE GREAT FALLS MT
500 AM MST MON FEB 27 2017

NOTE: "FAIR" INDICATES FEW OR NO CLOUDS BELOW 12000 FEET WITH NO
SIGNIFICANT WEATHER AND/OR OBSTRUCTIONS TO VISIBILITY.

MTZ001>007-043-271300-
WEST OF THE DIVIDE

CITY           SKY/WX    TMP DP  RH WIND       PRES   REMARKS
KALISPELL      FLURRIES  16   9  74 N10       29.63S WCI   4
MISSOULA       LGT SNOW  24  23  96 S3        29.59S FOG
BUTTE          CLEAR     13   5  70 CALM      29.51S
MULLAN PASS    FLURRIES  15  12  88 SW5       29.44F
ANACONDA         N/A     12   9  85 W3        29.53S
DEER LODGE       N/A     12   9  85 W3        29.56S
EUREKA           N/A     16  12  86 CALM      29.66S
HAMILTON         N/A     27  19  74 S5        29.56S
LIBBY            N/A     18  16  93 CALM      29.62F
PLAINS           N/A     23  16  75 E5        29.66S
RONAN            N/A     20  17  88 N6        29.67S WCI  12
$$

MTZ008-052>055-271300-
SOUTHWEST MONTANA

CITY           SKY/WX    TMP DP  RH WIND       PRES   REMARKS
BOZEMAN        CLOUDY    17  13  84 SW8       29.57S WCI   7
DILLON         CLEAR     15   6  67 S6        29.51F WCI   6
W YELLOWSTONE  CLOUDY     0  -2  92 CALM      29.52S
ENNIS          CLOUDY    21   7  53 SE10      29.57S WCI  10
THREE FORKS      N/A     15 -23  17 NW5       29.62S
TWIN BRIDGES     N/A     14   2  59 NE2       29.59S
$$

MTZ009-010-012-014-046-048-049-054-271300-
EAST SLOPES AND CENTRAL MONTANA

CITY           SKY/WX    TMP DP  RH WIND       PRES   REMARKS
CUT BANK       LGT SNOW   7   4  87 CALM      29.62F FOG
GREAT FALLS    CLOUDY     8   5  87 NE7       29.64F FOG     WCI  -3
MALMSTROM AFB  PTCLDY     8   6  93 N6        29.66F WCI  -3
HELENA         CLEAR     10   7  87 SW6       29.62S WCI   0
AUGUSTA        FLURRIES   4   1  91 NE5       29.59F
BOWMANS CRNR   LGT SNOW   6   4  91 N5        29.59F
CHOTEAU          N/A      7   5  92 CALM      29.65F FOG
CONRAD           N/A      6   3  87 CALM      29.70F
POWER          FLURRIES   6   4  91 NE5       29.64S
RAYNESFORD     FLURRIES  10   7  87 CALM      29.62S
ULM            FLURRIES   8   6  92 MISG      29.66S
$$

MTZ011-013-016-021-045-047-050-051-271300-
NORTH CENTRAL MONTANA

CITY           SKY/WX    TMP DP  RH WIND       PRES   REMARKS
HAVRE          CLOUDY    10   7  87 E7        29.75S WCI  -1
LEWISTOWN      LGT SNOW  13   9  84 E7        29.60F FOG     WCI   3
N BAR RANCH    CLOUDY    12   9  85 CALM      29.61S HAZE
CHINOOK          N/A      9   5  85 CALM      29.78S
DENTON         LGT SNOW  14  12  93 NE9       29.62S WCI   2
FORT BENTON      N/A    N/A N/A N/A MISG      29.72F
GEYSER         LGT SNOW  11   9  92 CALM      29.61F
GRASS RANGE    LGT SNOW  14  13  95 NE7       29.60S WCI   4
JUDITH GAP     FLURRIES   8   5  85 NW10      29.57S WCI  -6
ROY            FLURRIES  12  10  92 MISG      29.65R
STANFORD       LGT SNOW   8   7  94 NW6       29.59F WCI  -2
WINIFRED       FLURRIES  12  11  94 E10       29.63F WCI  -1
$$

MTZ017>020-022>027-061-062-271300-
NORTHEAST MONTANA

CITY           SKY/WX    TMP DP  RH WIND       PRES   REMARKS
GLASGOW        CLOUDY    14  10  84 NE9       29.75S WCI   2
JORDAN           N/A     18  14  84 NE12      29.70S WCI   5
SIDNEY         LGT SNOW  15  12  88 NE14      29.79R FOG     WCI   0
WOLF POINT     LGT SNOW  17  12  80 E13       29.79F WCI   4
PLENTYWOOD       N/A      7   1  78 N9        29.80S WCI  -7
POPLAR           N/A     12   9  85 NE10      29.81R WCI  -1
SCOBEY           N/A      7  -3  63 NW5       29.77F
$$

MTZ028>42-056>058-271300-
SOUTHCENTRAL AND SOUTHEAST MONTANA

CITY           SKY/WX    TMP DP  RH WIND       PRES   REMARKS
BAKER          CLOUDY    22  18  85 SE17      29.63F WCI   8
BILLINGS       CLOUDY    20  17  88 N7        29.61R WCI  11
LIVINGSTON     CLOUDY    18  13  80 E8        29.54R WCI   8
MILES CITY     CLEAR     22  18  85 NE16      29.62F WCI   8
BIG TIMBER     CLOUDY    18  14  86 N9        29.59S WCI   6
EKALAKA          N/A     20  14  77 SE13      29.59F WCI   7
FORSYTH          N/A     21  21 100 N3        29.63R
HARLOWTON      LGT SNOW  13  10  87 NE13      29.58S WCI  -1
LAUREL           N/A     20  13  74 CALM      29.61S
ROUNDUP          N/A     17  11  77 N7        29.59R WCI   8
$$

REGIONAL REPORTS...DAKOTAS

CITY           SKY/WX    TMP DP  RH WIND       PRES   REMARKS
WILLISTON      LGT SNOW  12   8  84 N14       29.81S FOG     WCI  -3
MINOT          CLOUDY    15   7  70 W10       29.81R WCI   2
DICKINSON      LGT SNOW  18  15  88 SE8       29.71F FOG     WCI   8
BEACH            N/A    N/A N/A N/A MISG        N/A
CROSBY           N/A      7   1  78 NW9       29.85R WCI  -7
TIOGA            N/A      9   9 100 N7        29.80S WCI  -3
WATFORD CITY   LGT SNOW  14  12  92 NE9       29.78F WCI   2
BISMARCK       CLOUDY    11   8  88 NE7       29.83F WCI   0
GRAND FORKS    CLOUDY    12   4  70 S8        29.90R WCI   0
FARGO          CLOUDY    22  16  78 E3        29.90F
BUFFALO SD       N/A     20  18  92 E8        29.58F WCI  10
RAPID CITY     CLOUDY    18  11  74 S7        29.65F WCI   9
$$

REGIONAL REPORTS...WYOMING/IDAHO/WASHINGTON

CITY           SKY/WX    TMP DP  RH WIND       PRES   REMARKS
GILLETTE       CLOUDY    19  10  68 CALM      29.56F
SHERIDAN       CLEAR     17   7  64 S10       29.55S WCI   5
BUFFALO WY     CLOUDY    26   5  40 W21       29.53S WCI  12
CODY           CLOUDY    19  11  70 NE3       29.54R
YELLOWSTONE LA   N/A      4   3  96 CALM      29.49S
IDAHO FALLS    CLOUDY    21  20  96 W3        29.61R
SALMON         CLOUDY    23  14  68 CALM      29.58S
BOISE          LGT SNOW  29  25  85 E8        29.66R FOG     WCI  21
SPOKANE        LGT SNOW  25  24  96 SW5       29.62F VSB 1
$$

REGIONAL REPORTS...ALBERTA

CITY           SKY/WX    TMP DP  RH WIND       PRES   REMARKS
EDMONTON       CLEAR      3  -4  72 SW8       29.64F WCI -10
CALGARY        PTCLDY     1  -2  85 S7        29.59F WCI -11
LETHBRIDGE     MOCLDY     0  -4  85 S8        29.68F WCI -15
MEDICINE HAT   PTCLDY    -4  -6  92 E2        29.77F
WATERTON GATE    N/A     -4  -8  84 SW3         N/A
CARDSTON         N/A      5   1  85 SE5         N/A
MILK RIVER       N/A      1  -2  85 SE1         N/A
ONEFOUR          N/A      1  -2  85 E7          N/A  WCI -11
$$

REGIONAL REPORTS...SASKATCHEWAN

CITY           SKY/WX    TMP DP  RH WIND       PRES   REMARKS
SWIFT CURRENT  PTCLDY    -2  -4  92 W3        29.74S
REGINA         PTCLDY     0  -6  78 NW7       29.83S WCI -13
SASKATOON      CLEAR     -9 -13  84 SW6       29.84F WCI -23
CYPRESS HILLS    N/A     -4  -8  84 W2          N/A
VAL MARIE        N/A      0  -2  92 NE1         N/A
ROCKGLEN         N/A      1   0  92 N2          N/A
ASSINIBOIA       N/A      0  -4  85 S6          N/A  WCI -12
$$



USA.gov is the U.S. government's official web portal to all federal, state and local government web resources and services.